Weather History for KAFJ - January, 2013

Change the Weather History Date:

Wednesday, January 30, 2013

  Actual Average Record
Temperature  
Mean Temperature 58 °F -  
Max Temperature 68 °F 36 °F 68 °F (2013)
Min Temperature 48 °F 20 °F -4 °F (2014)
Degree Days  
Heating Degree Days 7    
Growing Degree Days 8 (Base 50)    
Moisture  
Dew Point 50 °F    
Average Humidity 79    
Maximum Humidity 100    
Minimum Humidity 56    
Precipitation  
Precipitation 0.00 in - - ()
Sea Level Pressure  
Sea Level Pressure 29.53 in    
Wind  
Wind Speed 10 mph (South)    
Max Wind Speed 21 mph    
Max Gust Speed 36 mph    
Visibility 10 miles    
Events      
Averages and records for this station are not official NWS values.
T = Trace of Precipitation, MM = Missing Value Source: NWS Daily Summary

Daily Weather History Graph

Daily Weather History Graph

Search for Another Location

Airport or City:

Trip Planner

Search our weather history database for the weather conditions in past years. The results will help you decide how hot, cold, wet, or windy it might be!

Date:

Astronomy

Jan. 30, 2013 Rise Set
Actual Time 7:31 AM EST 5:37 PM EST
Civil Twilight 7:02 AM EST 6:06 PM EST
Nautical Twilight 6:30 AM EST 6:39 PM EST
Astronomical Twilight 5:58 AM EST 7:11 PM EST
Moon 9:35 PM EST (1/30) 8:58 AM EST (1/30)
Length of Visible Light 11h 04m
Length of Day
10h 06m
Waning Gibbous, 88% of the Moon is Illuminated
Jan 30
Waning Gibbous
Feb 3
Last Quarter
Feb 10
New
Feb 17
First Quarter
Feb 25
Full

Hourly Weather History & Observations

Time (EST) Temp. Dew Point Humidity Pressure Visibility Wind Dir Wind Speed Gust Speed Precip Events Conditions
12:15 AM 59.0 °F 48.2 °F 67% 29.83 in 10.0 mi South 5.8 mph - N/A   Clear
12:35 AM 59.0 °F 48.2 °F 67% 29.82 in 10.0 mi SSW 5.8 mph - N/A   Mostly Cloudy
12:55 AM 59.0 °F 48.2 °F 67% 29.79 in 10.0 mi South 5.8 mph - N/A   Mostly Cloudy
1:15 AM 59.0 °F 48.2 °F 67% 29.78 in 10.0 mi South 6.9 mph - N/A   Clear
1:35 AM 59.0 °F 46.4 °F 63% 29.77 in 10.0 mi South 10.4 mph - N/A   Clear
1:55 AM 59.0 °F 46.4 °F 63% 29.76 in 10.0 mi South 8.1 mph - N/A   Clear
2:15 AM 59.0 °F 46.4 °F 63% 29.75 in 10.0 mi South 8.1 mph - N/A   Clear
2:35 AM 59.0 °F 46.4 °F 63% 29.74 in 10.0 mi South 8.1 mph - N/A   Clear
2:55 AM 60.8 °F 46.4 °F 59% 29.72 in 10.0 mi South 5.8 mph - N/A   Clear
3:15 AM 59.0 °F 46.4 °F 63% 29.72 in 10.0 mi South 5.8 mph - N/A   Clear
3:35 AM 59.0 °F 46.4 °F 63% 29.70 in 10.0 mi South 4.6 mph - N/A   Clear
3:55 AM 59.0 °F 46.4 °F 63% 29.69 in 10.0 mi South 4.6 mph - N/A   Clear
4:15 AM 59.0 °F 46.4 °F 63% 29.68 in 10.0 mi South 5.8 mph - N/A   Clear
4:35 AM 59.0 °F 46.4 °F 63% 29.66 in 10.0 mi SSE 5.8 mph - N/A   Clear
4:55 AM 60.8 °F 48.2 °F 63% 29.65 in 10.0 mi SSE 8.1 mph - N/A   Clear
5:15 AM 60.8 °F 48.2 °F 63% 29.63 in 10.0 mi South 8.1 mph - N/A   Clear
5:35 AM 60.8 °F 48.2 °F 63% 29.62 in 10.0 mi South 10.4 mph - N/A   Clear
5:55 AM 60.8 °F 48.2 °F 63% 29.60 in 10.0 mi SSE 8.1 mph - N/A   Clear
6:15 AM 60.8 °F 48.2 °F 63% 29.59 in 10.0 mi SSE 9.2 mph - N/A   Clear
6:35 AM 60.8 °F 48.2 °F 63% 29.58 in 10.0 mi SSE 10.4 mph 17.3 mph N/A   Clear
7:15 AM 60.8 °F 51.8 °F 72% 29.56 in 10.0 mi South 10.4 mph - N/A   Clear
7:35 AM 62.6 °F 51.8 °F 68% 29.55 in 10.0 mi South 11.5 mph 23.0 mph N/A   Clear
7:55 AM 64.4 °F 51.8 °F 64% 29.55 in 10.0 mi SSW 12.7 mph 21.9 mph N/A   Clear
8:15 AM 66.2 °F 51.8 °F 60% 29.54 in 10.0 mi South 15.0 mph 25.3 mph N/A   Clear
8:35 AM 66.2 °F 51.8 °F 60% 29.52 in 10.0 mi South 16.1 mph 23.0 mph N/A   Clear
8:55 AM 66.2 °F 51.8 °F 60% 29.50 in 10.0 mi South 15.0 mph 23.0 mph N/A   Clear
9:15 AM 66.2 °F 51.8 °F 60% 29.49 in 10.0 mi South 17.3 mph 24.2 mph N/A   Clear
9:35 AM 68.0 °F 51.8 °F 56% 29.48 in 10.0 mi South 16.1 mph 25.3 mph N/A   Mostly Cloudy
9:55 AM 68.0 °F 51.8 °F 56% 29.47 in 10.0 mi South 18.4 mph 26.5 mph N/A   Overcast
10:15 AM 59.0 °F 53.6 °F 82% 29.59 in 4.0 mi West 15.0 mph 35.7 mph N/A   Overcast
10:35 AM 57.2 °F 53.6 °F 88% 29.60 in 8.0 mi West 16.1 mph 24.2 mph N/A   Overcast
10:55 AM 57.2 °F 53.6 °F 88% 29.60 in 10.0 mi WSW 11.5 mph 18.4 mph N/A   Overcast
11:15 AM 57.2 °F 55.4 °F 94% 29.59 in 10.0 mi SW 8.1 mph - N/A   Overcast
11:35 AM 57.2 °F 55.4 °F 94% 29.58 in 10.0 mi SW 10.4 mph - N/A   Mostly Cloudy
11:55 AM 57.2 °F 53.6 °F 88% 29.59 in 10.0 mi SW 10.4 mph 17.3 mph N/A   Mostly Cloudy
12:15 PM 57.2 °F 53.6 °F 88% 29.59 in 10.0 mi SW 15.0 mph 19.6 mph N/A   Overcast
12:35 PM 57.2 °F 53.6 °F 88% 29.57 in 10.0 mi SW 16.1 mph 23.0 mph N/A   Overcast
12:55 PM 57.2 °F 53.6 °F 88% 29.56 in 10.0 mi SW 10.4 mph 21.9 mph N/A   Overcast
1:15 PM 57.2 °F 51.8 °F 82% 29.58 in 10.0 mi SW 10.4 mph 19.6 mph N/A   Overcast
1:35 PM 55.4 °F 51.8 °F 88% 29.57 in 10.0 mi SSW 10.4 mph - N/A   Overcast
1:55 PM 55.4 °F 51.8 °F 88% 29.56 in 10.0 mi South 6.9 mph - N/A   Overcast
2:15 PM 55.4 °F 51.8 °F 88% 29.55 in 10.0 mi South 8.1 mph - N/A   Overcast
2:35 PM 53.6 °F 51.8 °F 94% 29.55 in 10.0 mi South 10.4 mph - N/A   Overcast
2:55 PM 53.6 °F 51.8 °F 94% 29.54 in 10.0 mi South 9.2 mph - N/A   Mostly Cloudy
3:15 PM 53.6 °F 51.8 °F 94% 29.53 in 9.0 mi SSE 8.1 mph - N/A   Mostly Cloudy
3:35 PM 53.6 °F 51.8 °F 94% 29.52 in 8.0 mi SSE 8.1 mph - N/A   Overcast
3:55 PM 53.6 °F 51.8 °F 94% 29.52 in 9.0 mi South 8.1 mph - N/A   Overcast
4:15 PM 53.6 °F 51.8 °F 94% 29.51 in 8.0 mi SSE 8.1 mph - N/A   Overcast
4:35 PM 53.6 °F 51.8 °F 94% 29.49 in 7.0 mi SSE 9.2 mph - N/A   Overcast
4:55 PM 53.6 °F 51.8 °F 94% 29.47 in 10.0 mi SSE 10.4 mph - N/A   Overcast
5:15 PM 53.6 °F 51.8 °F 94% 29.45 in 10.0 mi SSE 11.5 mph - N/A   Overcast
5:35 PM 53.6 °F 51.8 °F 94% 29.41 in 10.0 mi SE 15.0 mph 19.6 mph N/A   Overcast
5:55 PM 53.6 °F 51.8 °F 94% 29.40 in 10.0 mi SSE 12.7 mph 23.0 mph N/A   Overcast
6:15 PM 53.6 °F 51.8 °F 94% 29.39 in 10.0 mi SSE 13.8 mph 18.4 mph N/A   Overcast
6:35 PM 53.6 °F 51.8 °F 94% 29.39 in 10.0 mi SSE 8.1 mph 18.4 mph N/A   Overcast
6:55 PM 53.6 °F 53.6 °F 100% 29.35 in 9.0 mi SSE 11.5 mph 19.6 mph N/A   Overcast
7:15 PM 55.4 °F 53.6 °F 94% 29.35 in 10.0 mi South 9.2 mph 16.1 mph N/A   Overcast
7:35 PM 55.4 °F 53.6 °F 94% 29.34 in 10.0 mi South 9.2 mph - N/A   Overcast
7:55 PM 55.4 °F 53.6 °F 94% 29.34 in 8.0 mi SSW 9.2 mph 16.1 mph N/A   Overcast
8:15 PM 53.6 °F 51.8 °F 94% 29.34 in 8.0 mi SW 12.7 mph 25.3 mph N/A   Overcast
8:35 PM 53.6 °F 48.2 °F 82% 29.33 in 10.0 mi SW 16.1 mph 25.3 mph N/A   Overcast
8:55 PM 51.8 °F 48.2 °F 88% 29.31 in 10.0 mi SW 12.7 mph 18.4 mph N/A   Overcast
9:15 PM 51.8 °F 48.2 °F 88% 29.31 in 10.0 mi SSW 13.8 mph 18.4 mph N/A   Overcast
9:35 PM 50.0 °F 46.4 °F 87% 29.31 in 10.0 mi SSW 13.8 mph 23.0 mph N/A   Overcast
9:55 PM 50.0 °F 46.4 °F 87% 29.30 in 10.0 mi SW 17.3 mph 21.9 mph N/A   Overcast
10:15 PM 50.0 °F 46.4 °F 87% 29.30 in 7.0 mi SW 18.4 mph 29.9 mph N/A   Overcast
10:35 PM 51.8 °F 46.4 °F 82% 29.30 in 10.0 mi SW 13.8 mph 23.0 mph N/A   Overcast
10:55 PM 51.8 °F 44.6 °F 76% 29.31 in 10.0 mi SW 20.7 mph 29.9 mph N/A   Overcast
11:15 PM 50.0 °F 44.6 °F 82% 29.29 in 10.0 mi SSW 13.8 mph 19.6 mph N/A   Overcast
11:35 PM 48.2 °F 42.8 °F 82% 29.33 in 10.0 mi SW 16.1 mph 23.0 mph N/A   Overcast
11:55 PM 48.2 °F 42.8 °F 82% 29.29 in 10.0 mi SW 12.7 mph 24.2 mph N/A   Mostly Cloudy